Location: Gostynin
(52.4203°N, 19.4677°E)
Time: 23:56:20
(UTC+01:00)

ISS - Visible Passes

Search period start: 23 January 2019 00:00
Search period end: 02 February 2019 00:00
Orbit: 404 x 410 km, 51.6° (Epoch: 24 January)

Date Brightness Start Highest point End Pass type
(mag) Time Alt. Az. Time Alt. Az. Time Alt. Az.
23 Jan -1.3 18:40:19 10° SSW 18:41:05 14° S 18:41:05 14° S visible
24 Jan -1.7 17:49:51 10° S 17:51:47 15° SE 17:52:04 15° SE visible
24 Jan -0.6 19:24:34 10° SW 19:24:47 11° SW 19:24:47 11° SW visible
25 Jan -2.4 18:33:26 10° SW 18:35:41 30° S 18:35:41 30° S visible
26 Jan -2.3 17:42:28 10° SSW 17:45:15 25° SSE 17:46:30 20° ESE visible
26 Jan -1.1 19:18:10 10° WSW 19:19:14 19° WSW 19:19:14 19° WSW visible
27 Jan -3.5 18:26:53 10° WSW 18:30:00 54° S 18:30:00 54° S visible
28 Jan -3.0 17:35:39 10° SW 17:38:46 41° SSE 17:40:43 20° E visible
28 Jan -1.6 19:11:51 10° W 19:13:26 26° W 19:13:26 26° W visible
29 Jan -3.9 18:20:27 10° WSW 18:23:45 72° S 18:24:07 63° ESE visible
30 Jan -3.5 17:29:05 10° WSW 17:32:21 61° SSE 17:34:47 17° E visible
30 Jan -2.1 19:05:30 10° W 19:07:30 33° W 19:07:30 33° W visible
31 Jan -3.9 18:14:04 10° W 18:17:23 80° S 18:18:09 49° ESE visible
31 Jan -0.3 19:50:35 10° W 19:50:52 12° W 19:50:52 12° W visible
01 Feb -3.7 17:22:38 10° W 17:25:56 76° S 17:28:49 13° E visible
01 Feb -2.6 18:59:08 10° W 19:01:32 42° WSW 19:01:32 42° WSW visible
